FW1458 Weather Reports


Display with metric or nautical units.
time (UTC)temp
F
wind
direction
speed
MPH
gust
MPH
rain 1hr
in
rain 24hr
in
rain mn
in
humidity
%
barometer
mb
20260902184527 100 140 5.0 10.0 0.00 0.00 0.00 44 1013.4
20260902183018 99 219 4.0 12.0 0.00 0.00 0.00 44 1013.7
20260902181515 99 174 4.0 13.0 0.00 0.00 0.00 45 1013.9
20260902180011 98 217 4.0 13.0 0.00 0.00 0.00 45 1014.1
20260902174512 98 130 4.0 9.0 0.00 0.00 0.00 46 1014.6
20260902173008 98 155 4.0 9.0 0.00 0.00 0.00 46 1014.7
20260902171503 97 213 5.0 10.0 0.00 0.00 0.00 48 1014.9
20260902170059 96 188 6.0 11.0 0.00 0.00 0.00 48 1015.0
20260902164557 96 220 4.0 10.0 0.00 0.00 0.00 50 1015.2
20260902163052 95 196 4.0 11.0 0.00 0.00 0.00 53 1015.2
20260902161556 94 167 4.0 11.0 0.00 0.00 0.00 55 1015.3
20260902160058 93 193 6.0 14.0 0.00 0.00 0.00 55 1015.4
20260902154543 92 177 5.0 10.0 0.00 0.00 0.00 56 1015.4
20260902153044 92 220 3.0 11.0 0.00 0.00 0.00 57 1015.2
20260902151545 90 205 5.0 11.0 0.00 0.00 0.00 58 1015.3
20260902150035 89 209 5.0 10.0 0.00 0.00 0.00 60 1015.4
20260902144529 88 163 5.0 12.0 0.00 0.00 0.00 61 1015.4
20260902143027 87 199 5.0 10.0 0.00 0.00 0.00 62 1015.5
20260902141532 87 144 4.0 12.0 0.00 0.00 0.00 64 1015.4
20260902140024 86 167 4.0 10.0 0.00 0.00 0.00 65 1015.4
20260902134534 84 166 3.0 9.0 0.00 0.00 0.00 68 1015.4
20260902133022 82 230 3.0 6.0 0.00 0.00 0.00 70 1015.5
20260902131521 80 186 2.0 8.0 0.00 0.00 0.00 73 1015.4
20260902130019 79 175 2.0 5.0 0.00 0.00 0.00 74 1015.3
20260902124519 79 158 3.0 5.0 0.00 0.00 0.00 75 1015.3
20260902123022 78 158 2.0 5.0 0.00 0.00 0.00 74 1015.2
20260902121514 78 165 1.0 4.0 0.00 0.00 0.00 74 1015.1
20260902120011 78 159 1.0 7.0 0.00 0.00 0.00 74 1014.8
20260902114511 78 209 2.0 5.0 0.00 0.00 0.00 74 1014.6
20260902113008 78 188 1.0 3.0 0.00 0.00 0.00 75 1014.4
20260902111506 78 159 0.0 1.0 0.00 0.00 0.00 74 1014.3
20260902110010 78 195 1.0 2.0 0.00 0.00 0.00 73 1014.3
20260902104508 79 198 0.0 2.0 0.00 0.00 0.00 72 1014.4
20260902103101 79 128 0.0 1.0 0.00 0.00 0.00 71 1014.3
20260902101601 80 151 1.0 2.0 0.00 0.00 0.00 71 1014.0
20260902100123 80 249 0.0 2.0 0.00 0.00 0.00 70 1013.9
20260902094553 80 175 0.0 2.0 0.00 0.00 0.00 69 1013.9
20260902093105 81 180 1.0 7.0 0.00 0.00 0.00 69 1013.9
20260902091552 81 178 2.0 5.0 0.00 0.00 0.00 68 1013.7
20260902090055 81 167 1.0 3.0 0.00 0.00 0.00 67 1013.5
20260902084554 81 146 1.0 5.0 0.00 0.00 0.00 67 1013.6
20260902083102 81 170 1.0 4.0 0.00 0.00 0.00 66 1013.8
20260902081608 82 192 1.0 3.0 0.00 0.00 0.00 65 1013.8
20260902080057 82 149 1.0 3.0 0.00 0.00 0.00 65 1013.6
20260902074546 82 188 0.0 2.0 0.00 0.00 0.00 64 1013.9
20260902073043 82 144 0.0 3.0 0.00 0.00 0.00 63 1013.7
20260902071544 83 172 0.0 2.0 0.00 0.00 0.00 62 1013.6
20260902070040 83 182 1.0 3.0 0.00 0.00 0.00 62 1013.7
20260902064538 84 174 1.0 3.0 0.00 0.00 0.00 61 1013.6
20260902063049 84 161 2.0 5.0 0.00 0.00 0.00 60 1013.6
20260902061535 85 144 1.0 3.0 0.00 0.00 0.00 59 1013.4
20260902060034 85 134 1.0 3.0 0.00 0.00 0.00 58 1013.4
20260902054535 86 163 1.0 2.0 0.00 0.00 0.00 57 1013.1
20260902053028 86 159 1.0 3.0 0.00 0.00 0.00 57 1013.2
20260902051526 87 209 0.0 2.0 0.00 0.00 0.00 56 1013.1
20260902050024 87 165 1.0 4.0 0.00 0.00 0.00 55 1013.1
20260902044537 87 88 0.0 2.0 0.00 0.00 0.00 55 1013.0
20260902043021 86 144 0.0 1.0 0.00 0.00 0.00 55 1012.8
20260902041522 86 144 0.0 2.0 0.00 0.00 0.00 56 1012.7
20260902040020 86 116 0.0 1.0 0.00 0.00 0.00 56 1013.0
20260902034520 86 116 0.0 1.0 0.00 0.00 0.00 55 1012.9
20260902033020 87 116 0.0 1.0 0.00 0.00 0.00 55 1012.7
20260902031540 87 116 0.0 1.0 0.00 0.00 0.00 54 1012.5
20260902030018 87 117 0.0 1.0 0.00 0.00 0.00 54 1012.5
20260902024519 88 137 0.0 1.0 0.00 0.00 0.00 53 1012.4
20260902023018 89 126 0.0 1.0 0.00 0.00 0.00 52 1012.1
20260902021525 90 132 0.0 1.0 0.00 0.00 0.00 51 1011.9
20260902020017 91 132 0.0 1.0 0.00 0.00 0.00 49 1011.9
20260902014540 92 169 0.0 2.0 0.00 0.00 0.00 48 1011.8
20260902013016 93 121 0.0 2.0 0.00 0.00 0.00 47 1011.6
20260902011516 94 134 0.0 2.0 0.00 0.00 0.00 46 1011.6
20260902010017 94 165 1.0 4.0 0.00 0.00 0.00 45 1011.6
20260902004518 95 172 1.0 6.0 0.00 0.00 0.00 43 1011.5
20260902003014 96 170 3.0 8.0 0.00 0.00 0.00 42 1011.7
20260902001513 97 147 1.0 6.0 0.00 0.00 0.00 41 1011.7
20260902000012 98 86 1.0 7.0 0.00 0.00 0.00 40 1011.9
20260901234529 99 232 2.0 7.0 0.00 0.00 0.00 38 1011.8
20260901233012 100 171 3.0 7.0 0.00 0.00 0.00 38 1011.9
20260901231511 101 188 3.0 9.0 0.00 0.00 0.00 37 1012.0
20260901230014 101 161 3.0 10.0 0.00 0.00 0.00 36 1012.0
20260901224510 102 166 6.0 9.0 0.00 0.00 0.00 32 1012.0
20260901223012 102 175 3.0 11.0 0.00 0.00 0.00 37 1012.0
20260901221530 102 163 4.0 10.0 0.00 0.00 0.00 33 1011.9
20260901220012 103 188 5.0 10.0 0.00 0.00 0.00 33 1012.0
20260901214504 103 103 4.0 9.0 0.00 0.00 0.00 31 1012.1
20260901213002 103 191 6.0 11.0 0.00 0.00 0.00 32 1012.1
20260901211502 102 146 7.0 11.0 0.00 0.00 0.00 35 1012.2
20260901210059 101 174 2.0 9.0 0.00 0.00 0.00 36 1012.5
20260901204559 103 184 4.0 10.0 0.00 0.00 0.00 35 1012.7
20260901203104 101 163 6.0 11.0 0.00 0.00 0.00 36 1012.8
20260901201556 101 173 7.0 13.0 0.00 0.00 0.00 37 1013.1
20260901200052 100 65 1.0 12.0 0.00 0.00 0.00 40 1013.4
20260901194551 102 163 3.0 6.0 0.00 0.00 0.00 38 1013.5
20260901193102 103 198 4.0 14.0 0.00 0.00 0.00 37 1013.7
20260901191550 101 184 5.0 11.0 0.00 0.00 0.00 37 1014.1
20260901190046 100 174 3.0 9.0 0.00 0.00 0.00 39 1014.2